TimeEST,TemperatureF,Dew PointF,Humidity,Sea Level PressureIn,VisibilityMPH,Wind Direction,Wind SpeedMPH,Gust SpeedMPH,PrecipitationIn,Events,Conditions,WindDirDegrees,DateUTC
12:35 AM,25.7,25.7,100,30.28,10.0,Calm,Calm,-,N/A,,Clear,0,2011-11-22 05:35:00
1:14 AM,23.7,23.7,100,30.28,10.0,Calm,Calm,-,N/A,,Clear,0,2011-11-22 06:14:00
1:35 AM,23.4,23.4,100,30.29,10.0,Calm,Calm,-,N/A,,Clear,0,2011-11-22 06:35:00
1:54 AM,22.6,22.6,100,30.28,10.0,Calm,Calm,-,N/A,,Clear,0,2011-11-22 06:54:00
2:15 AM,23.9,23.9,100,30.28,10.0,Calm,Calm,-,N/A,,Clear,0,2011-11-22 07:15:00
2:35 AM,23.7,23.7,100,30.28,10.0,Calm,Calm,-,N/A,,Clear,0,2011-11-22 07:35:00
2:54 AM,22.6,22.6,100,30.28,10.0,Calm,Calm,-,N/A,,Clear,0,2011-11-22 07:54:00
3:15 AM,22.8,22.8,100,30.27,10.0,Calm,Calm,-,N/A,,Clear,0,2011-11-22 08:15:00
3:35 AM,24.1,24.1,100,30.27,10.0,Calm,Calm,-,N/A,,Clear,0,2011-11-22 08:35:00
3:54 AM,24.6,24.6,100,30.25,10.0,Calm,Calm,-,N/A,,Clear,0,2011-11-22 08:54:00
4:15 AM,26.2,26.2,100,30.25,10.0,Calm,Calm,-,N/A,,Clear,0,2011-11-22 09:15:00
4:35 AM,29.1,29.1,100,30.26,10.0,Calm,Calm,-,N/A,,Clear,0,2011-11-22 09:35:00
4:54 AM,29.7,29.5,99,30.25,10.0,Calm,Calm,-,N/A,,Clear,0,2011-11-22 09:54:00
5:15 AM,30.0,30.0,100,30.25,10.0,East,4.6,-,N/A,,Clear,80,2011-11-22 10:15:00
5:34 AM,30.2,30.2,100,30.23,10.0,East,4.6,-,N/A,,Clear,100,2011-11-22 10:34:00
5:54 AM,30.6,30.6,100,30.22,10.0,East,4.6,-,N/A,,Clear,100,2011-11-22 10:54:00
6:15 AM,30.6,30.6,100,30.21,10.0,East,3.5,-,N/A,,Scattered Clouds,100,2011-11-22 11:15:00
6:54 AM,31.1,31.1,100,30.21,10.0,East,3.5,-,N/A,,Mostly Cloudy,90,2011-11-22 11:54:00
7:15 AM,31.1,31.1,100,30.19,10.0,East,5.8,-,N/A,,Mostly Cloudy,100,2011-11-22 12:15:00
7:34 AM,31.5,31.1,99,30.19,10.0,ESE,5.8,-,N/A,,Scattered Clouds,110,2011-11-22 12:34:00
7:54 AM,31.8,31.5,99,30.19,10.0,East,4.6,-,N/A,,Clear,100,2011-11-22 12:54:00
8:15 AM,32.2,31.8,99,30.19,10.0,ESE,4.6,-,N/A,,Clear,110,2011-11-22 13:15:00
8:34 AM,32.9,32.0,96,30.19,10.0,East,6.9,-,N/A,,Clear,100,2011-11-22 13:34:00
8:54 AM,33.3,32.0,95,30.19,10.0,ESE,8.1,-,N/A,,Mostly Cloudy,110,2011-11-22 13:54:00
9:15 AM,33.4,31.8,94,30.19,10.0,East,8.1,-,N/A,,Overcast,100,2011-11-22 14:15:00
9:34 AM,33.8,31.5,91,30.18,10.0,ESE,10.4,16.1,N/A,,Mostly Cloudy,110,2011-11-22 14:34:00
10:15 AM,33.8,31.8,92,30.16,10.0,East,5.8,16.1,N/A,,Overcast,100,2011-11-22 15:15:00
10:34 AM,34.0,32.0,92,30.16,10.0,East,8.1,18.4,N/A,,Overcast,90,2011-11-22 15:34:00
10:54 AM,34.2,32.0,92,30.16,7.0,East,8.1,-,N/A,,Mostly Cloudy,100,2011-11-22 15:54:00
11:15 AM,34.7,32.0,90,30.15,7.0,East,9.2,-,N/A,,Scattered Clouds,100,2011-11-22 16:15:00
11:34 AM,34.7,32.0,90,30.14,10.0,East,4.6,-,N/A,,Mostly Cloudy,90,2011-11-22 16:34:00
11:55 AM,35.1,31.8,88,30.12,10.0,East,8.1,-,N/A,,Overcast,90,2011-11-22 16:55:00
12:34 PM,35.8,31.1,83,30.09,10.0,East,10.4,16.1,N/A,,Overcast,90,2011-11-22 17:34:00
1:34 PM,36.0,30.6,81,30.03,10.0,East,10.4,-,N/A,,Overcast,90,2011-11-22 18:34:00
1:55 PM,36.1,30.6,80,30.01,10.0,East,8.1,18.4,N/A,,Overcast,80,2011-11-22 18:55:00
2:34 PM,36.5,30.2,78,29.98,10.0,East,5.8,-,N/A,,Overcast,80,2011-11-22 19:34:00
2:55 PM,36.5,30.2,78,29.97,10.0,ENE,8.1,17.3,N/A,,Overcast,70,2011-11-22 19:55:00
3:14 PM,36.3,30.2,78,29.96,10.0,East,6.9,-,N/A,,Overcast,80,2011-11-22 20:14:00
3:34 PM,36.5,30.2,78,29.95,10.0,East,5.8,16.1,N/A,,Overcast,80,2011-11-22 20:34:00
3:55 PM,36.3,30.2,78,29.93,10.0,East,6.9,17.3,N/A,,Overcast,80,2011-11-22 20:55:00
4:34 PM,36.5,30.0,77,29.94,10.0,ENE,4.6,-,N/A,,Overcast,70,2011-11-22 21:34:00
4:55 PM,36.5,30.0,77,29.94,10.0,ENE,8.1,-,N/A,,Mostly Cloudy,60,2011-11-22 21:55:00
5:15 PM,36.5,30.2,78,29.96,10.0,ENE,5.8,-,N/A,,Mostly Cloudy,70,2011-11-22 22:15:00
5:34 PM,36.5,30.2,78,29.95,10.0,ENE,5.8,-,N/A,,Overcast,70,2011-11-22 22:34:00
5:55 PM,36.5,30.6,79,29.94,10.0,ENE,5.8,-,N/A,,Overcast,70,2011-11-22 22:55:00
6:35 PM,37.0,30.0,76,29.93,10.0,ENE,5.8,-,N/A,,Mostly Cloudy,70,2011-11-22 23:35:00
6:55 PM,36.9,30.0,76,29.93,10.0,NE,4.6,-,N/A,,Scattered Clouds,50,2011-11-22 23:55:00
7:14 PM,36.7,29.8,76,29.93,10.0,ENE,8.1,-,N/A,,Clear,70,2011-11-23 00:14:00
7:35 PM,36.5,29.7,76,29.93,10.0,NE,6.9,-,N/A,,Clear,40,2011-11-23 00:35:00
7:55 PM,36.0,29.8,78,29.92,10.0,NNE,8.1,-,N/A,,Clear,30,2011-11-23 00:55:00
8:14 PM,36.0,29.7,78,29.92,10.0,NE,6.9,-,N/A,,Clear,40,2011-11-23 01:14:00
8:35 PM,36.0,29.5,77,29.92,10.0,NE,6.9,-,N/A,,Clear,50,2011-11-23 01:35:00
9:15 PM,35.4,29.7,80,29.93,10.0,NNE,4.6,-,N/A,,Clear,20,2011-11-23 02:15:00
9:35 PM,34.9,29.7,81,29.93,10.0,NNE,4.6,-,N/A,,Clear,30,2011-11-23 02:35:00
10:15 PM,34.0,30.2,86,29.92,10.0,North,3.5,-,N/A,,Clear,10,2011-11-23 03:15:00
10:35 PM,33.8,30.2,87,29.93,10.0,North,6.9,-,N/A,,Clear,10,2011-11-23 03:35:00
10:54 PM,33.8,30.7,89,29.93,10.0,North,5.8,-,N/A,,Clear,10,2011-11-23 03:54:00
11:15 PM,33.8,30.7,89,29.93,10.0,North,4.6,-,N/A,,Clear,360,2011-11-23 04:15:00
11:34 PM,33.6,30.7,89,29.93,10.0,North,3.5,-,N/A,,Clear,360,2011-11-23 04:34:00
11:54 PM,32.9,30.2,90,29.94,10.0,North,3.5,-,N/A,,Clear,350,2011-11-23 04:54:00